Time,TemperatureF,DewpointF,PressureIn,WindDirection,WindDirectionDegrees,WindSpeedMPH,WindSpeedGustMPH,Humidity,HourlyPrecipIn,Conditions,Clouds,dailyrainin,SoftwareType,DateUTC
2013-05-30 00:00:00,75.8,62.8,29.85,ESE,114,0.0,2.0,64,0.00,,,0.16,VWS V14.01,2013-05-30 05:00:00,
2013-05-30 00:03:00,75.1,63.4,29.85,ESE,117,0.0,2.0,67,0.00,,,0.00,VWS V14.01,2013-05-30 05:03:00,
2013-05-30 00:08:00,75.0,63.3,29.85,ESE,116,0.0,2.0,67,0.00,,,0.00,VWS V14.01,2013-05-30 05:08:00,
2013-05-30 00:13:00,74.9,63.6,29.85,ESE,117,0.0,2.0,68,0.00,,,0.00,VWS V14.01,2013-05-30 05:13:00,
2013-05-30 00:18:00,74.7,63.9,29.85,ESE,117,0.0,2.0,69,0.00,,,0.00,VWS V14.01,2013-05-30 05:18:00,
2013-05-30 00:23:00,74.5,63.7,29.85,ESE,117,0.0,2.0,69,0.00,,,0.00,VWS V14.01,2013-05-30 05:23:00,
2013-05-30 00:28:00,74.4,64.0,29.84,ESE,114,0.0,4.0,70,0.00,,,0.00,VWS V14.01,2013-05-30 05:28:00,
2013-05-30 00:30:00,75.7,62.7,29.86,ESE,115,0.0,5.0,64,0.00,,,0.16,VWS V14.01,2013-05-30 05:30:00,
2013-05-30 00:33:00,74.2,63.8,29.84,ESE,114,0.0,2.0,70,0.00,,,0.00,VWS V14.01,2013-05-30 05:33:00,
2013-05-30 00:38:00,74.2,64.2,29.84,ESE,117,0.0,5.0,71,0.00,,,0.00,VWS V14.01,2013-05-30 05:38:00,
2013-05-30 00:43:00,74.2,64.2,29.84,ESE,107,0.0,5.0,71,0.00,,,0.00,VWS V14.01,2013-05-30 05:43:00,
2013-05-30 00:48:00,74.3,64.3,29.84,ESE,109,0.0,5.0,71,0.00,,,0.00,VWS V14.01,2013-05-30 05:48:00,
2013-05-30 00:53:00,74.3,64.3,29.83,ESE,109,0.0,5.0,71,0.00,,,0.00,VWS V14.01,2013-05-30 05:53:00,
2013-05-30 00:58:00,74.3,64.3,29.83,ESE,118,0.0,7.0,71,0.00,,,0.00,VWS V14.01,2013-05-30 05:58:00,
2013-05-30 01:00:00,75.2,63.1,29.85,ESE,117,0.0,2.0,66,0.00,,,0.16,VWS V14.01,2013-05-30 06:00:00,
2013-05-30 01:03:00,74.3,64.7,29.83,ESE,118,0.0,2.0,72,0.00,,,0.00,VWS V14.01,2013-05-30 06:03:00,
2013-05-30 01:08:00,74.4,64.8,29.83,ESE,118,0.0,2.0,72,0.00,,,0.00,VWS V14.01,2013-05-30 06:08:00,
2013-05-30 01:13:00,74.3,64.7,29.83,ESE,118,0.0,4.0,72,0.00,,,0.00,VWS V14.01,2013-05-30 06:13:00,
2013-05-30 01:18:00,74.3,64.7,29.83,ESE,118,0.0,4.0,72,0.00,,,0.00,VWS V14.01,2013-05-30 06:18:00,
2013-05-30 01:23:00,74.2,64.6,29.82,ESE,118,2.0,4.0,72,0.00,,,0.00,VWS V14.01,2013-05-30 06:23:00,
2013-05-30 01:28:00,74.2,64.6,29.82,ESE,110,0.0,5.0,72,0.00,,,0.00,VWS V14.01,2013-05-30 06:28:00,
2013-05-30 01:30:00,74.3,63.9,29.84,ESE,114,0.0,4.0,70,0.00,,,0.00,VWS V14.01,2013-05-30 06:30:00,
2013-05-30 01:33:00,74.1,64.9,29.82,ESE,110,0.0,0.0,73,0.00,,,0.00,VWS V14.01,2013-05-30 06:33:00,
2013-05-30 01:38:00,74.0,64.8,29.82,ESE,112,0.0,4.0,73,0.00,,,0.00,VWS V14.01,2013-05-30 06:38:00,
2013-05-30 01:43:00,73.9,64.7,29.81,ESE,113,0.0,5.0,73,0.00,,,0.00,VWS V14.01,2013-05-30 06:43:00,
2013-05-30 01:48:00,73.9,65.1,29.81,ESE,113,2.0,5.0,74,0.00,,,0.00,VWS V14.01,2013-05-30 06:48:00,
2013-05-30 01:53:00,73.9,64.7,29.81,ESE,113,2.0,5.0,73,0.00,,,0.00,VWS V14.01,2013-05-30 06:53:00,
2013-05-30 01:58:00,73.9,64.7,29.81,ESE,108,0.0,5.0,73,0.00,,,0.00,VWS V14.01,2013-05-30 06:58:00,
2013-05-30 02:00:00,74.3,64.3,29.83,ESE,118,0.0,7.0,71,0.00,,,0.00,VWS V14.01,2013-05-30 07:00:00,
2013-05-30 02:03:00,73.9,64.7,29.81,ESE,117,1.0,4.0,73,0.00,,,0.00,VWS V14.01,2013-05-30 07:03:00,
2013-05-30 02:08:00,73.9,64.7,29.80,SE,130,2.0,5.0,73,0.00,,,0.00,VWS V14.01,2013-05-30 07:08:00,
2013-05-30 02:13:00,74.0,64.4,29.81,SE,144,2.0,6.0,72,0.00,,,0.00,VWS V14.01,2013-05-30 07:13:00,
2013-05-30 02:18:00,74.1,64.5,29.81,East,100,0.0,6.0,72,0.00,,,0.00,VWS V14.01,2013-05-30 07:18:00,
2013-05-30 02:24:00,74.2,64.6,29.80,East,101,0.0,6.0,72,0.00,,,0.00,VWS V14.01,2013-05-30 07:24:00,
2013-05-30 02:29:00,74.1,64.1,29.80,SE,142,0.0,7.0,71,0.00,,,0.00,VWS V14.01,2013-05-30 07:29:00,
2013-05-30 02:30:00,74.2,64.6,29.82,ESE,110,0.0,5.0,72,0.00,,,0.00,VWS V14.01,2013-05-30 07:30:00,
2013-05-30 02:34:00,74.1,64.1,29.80,SE,140,0.0,2.0,71,0.00,,,0.00,VWS V14.01,2013-05-30 07:34:00,
2013-05-30 02:39:00,74.2,64.2,29.80,ESE,115,0.0,8.0,71,0.00,,,0.00,VWS V14.01,2013-05-30 07:39:00,
2013-05-30 02:44:00,74.2,64.2,29.80,ESE,123,0.0,8.0,71,0.00,,,0.00,VWS V14.01,2013-05-30 07:44:00,
2013-05-30 02:49:00,74.2,64.2,29.81,ESE,120,0.0,8.0,71,0.00,,,0.00,VWS V14.01,2013-05-30 07:49:00,
2013-05-30 02:54:00,74.0,64.0,29.81,ESE,115,0.0,8.0,71,0.00,,,0.00,VWS V14.01,2013-05-30 07:54:00,
2013-05-30 02:59:00,74.0,64.4,29.81,ESE,115,0.0,8.0,72,0.00,,,0.00,VWS V14.01,2013-05-30 07:59:00,
2013-05-30 03:00:00,73.9,64.7,29.81,ESE,108,0.0,5.0,73,0.00,,,0.00,VWS V14.01,2013-05-30 08:00:00,
2013-05-30 03:04:00,73.9,64.3,29.81,SE,125,0.0,6.0,72,0.00,,,0.00,VWS V14.01,2013-05-30 08:04:00,
2013-05-30 03:09:00,73.8,64.2,29.81,SE,125,0.0,6.0,72,0.00,,,0.00,VWS V14.01,2013-05-30 08:09:00,
2013-05-30 03:14:00,73.8,64.2,29.81,ESE,121,0.0,6.0,72,0.00,,,0.00,VWS V14.01,2013-05-30 08:14:00,
2013-05-30 03:19:00,73.8,64.2,29.81,ESE,121,1.0,6.0,72,0.00,,,0.00,VWS V14.01,2013-05-30 08:19:00,
2013-05-30 03:24:00,73.8,64.2,29.81,ESE,117,0.0,6.0,72,0.00,,,0.00,VWS V14.01,2013-05-30 08:24:00,
2013-05-30 03:29:00,73.8,64.2,29.80,ESE,122,2.0,8.0,72,0.00,,,0.00,VWS V14.01,2013-05-30 08:29:00,
2013-05-30 03:30:00,74.1,64.1,29.80,SE,142,0.0,7.0,71,0.00,,,0.00,VWS V14.01,2013-05-30 08:30:00,
2013-05-30 03:34:00,73.7,64.1,29.80,SE,124,0.0,4.0,72,0.00,,,0.00,VWS V14.01,2013-05-30 08:34:00,
2013-05-30 03:39:00,73.7,64.1,29.80,SE,125,0.0,5.0,72,0.00,,,0.00,VWS V14.01,2013-05-30 08:39:00,
2013-05-30 03:44:00,73.7,64.1,29.80,ESE,117,4.0,6.0,72,0.00,,,0.00,VWS V14.01,2013-05-30 08:44:00,
2013-05-30 03:49:00,73.9,64.3,29.80,ESE,120,0.0,9.0,72,0.00,,,0.00,VWS V14.01,2013-05-30 08:49:00,
2013-05-30 03:54:00,73.9,64.3,29.80,ESE,113,4.0,9.0,72,0.00,,,0.00,VWS V14.01,2013-05-30 08:54:00,
2013-05-30 03:59:00,73.9,64.3,29.80,ESE,121,5.0,9.0,72,0.00,,,0.00,VWS V14.01,2013-05-30 08:59:00,
2013-05-30 04:00:00,74.0,64.4,29.81,ESE,115,0.0,8.0,72,0.00,,,0.00,VWS V14.01,2013-05-30 09:00:00,
2013-05-30 04:04:00,74.0,64.4,29.79,ESE,113,4.0,7.0,72,0.00,,,0.00,VWS V14.01,2013-05-30 09:04:00,
2013-05-30 04:09:00,74.0,64.4,29.79,ESE,119,0.0,7.0,72,0.00,,,0.00,VWS V14.01,2013-05-30 09:09:00,
2013-05-30 04:14:00,73.9,64.3,29.79,East,101,0.0,7.0,72,0.00,,,0.00,VWS V14.01,2013-05-30 09:14:00,
2013-05-30 04:19:00,73.8,64.2,29.79,ESE,113,0.0,8.0,72,0.00,,,0.00,VWS V14.01,2013-05-30 09:19:00,
2013-05-30 04:24:00,73.9,64.3,29.80,ESE,112,4.0,8.0,72,0.00,,,0.00,VWS V14.01,2013-05-30 09:24:00,
2013-05-30 04:29:00,74.0,64.4,29.80,ESE,109,2.0,8.0,72,0.00,,,0.00,VWS V14.01,2013-05-30 09:29:00,
2013-05-30 04:30:00,73.8,64.2,29.80,ESE,121,0.0,8.0,72,0.00,,,0.00,VWS V14.01,2013-05-30 09:30:00,
2013-05-30 04:34:00,73.8,64.6,29.80,ESE,111,6.0,8.0,73,0.00,,,0.00,VWS V14.01,2013-05-30 09:34:00,
2013-05-30 04:39:00,73.7,64.5,29.80,ESE,111,0.0,8.0,73,0.00,,,0.00,VWS V14.01,2013-05-30 09:39:00,
2013-05-30 04:44:00,73.5,64.7,29.79,ESE,119,0.0,8.0,74,0.00,,,0.00,VWS V14.01,2013-05-30 09:44:00,
2013-05-30 04:49:00,73.4,64.6,29.80,ESE,121,1.0,8.0,74,0.00,,,0.00,VWS V14.01,2013-05-30 09:49:00,
2013-05-30 04:54:00,73.4,64.6,29.80,SE,125,0.0,8.0,74,0.00,,,0.00,VWS V14.01,2013-05-30 09:54:00,
2013-05-30 04:59:00,73.3,64.5,29.80,ESE,118,0.0,8.0,74,0.00,,,0.00,VWS V14.01,2013-05-30 09:59:00,
2013-05-30 05:00:00,73.9,64.3,29.80,ESE,109,1.0,11.0,72,0.00,,,0.00,VWS V14.01,2013-05-30 10:00:00,
2013-05-30 05:04:00,73.2,64.8,29.80,ESE,112,0.0,5.0,75,0.00,,,0.00,VWS V14.01,2013-05-30 10:04:00,
2013-05-30 05:09:00,73.2,64.8,29.79,ESE,113,5.0,5.0,75,0.00,,,0.00,VWS V14.01,2013-05-30 10:09:00,
2013-05-30 05:14:00,73.3,64.9,29.79,ESE,111,0.0,9.0,75,0.00,,,0.00,VWS V14.01,2013-05-30 10:14:00,
2013-05-30 05:19:00,73.4,65.4,29.79,SE,127,1.0,9.0,76,0.00,,,0.00,VWS V14.01,2013-05-30 10:19:00,
2013-05-30 05:24:00,73.5,65.5,29.79,East,88,0.0,9.0,76,0.00,,,0.00,VWS V14.01,2013-05-30 10:24:00,
2013-05-30 05:29:00,73.7,65.7,29.80,SSE,166,0.0,9.0,76,0.00,,,0.00,VWS V14.01,2013-05-30 10:29:00,
2013-05-30 05:30:00,73.9,64.3,29.80,ESE,109,1.0,8.0,72,0.00,,,0.00,VWS V14.01,2013-05-30 10:30:00,
2013-05-30 05:34:00,73.7,65.7,29.79,ESE,121,4.0,7.0,76,0.00,,,0.00,VWS V14.01,2013-05-30 10:34:00,
2013-05-30 05:39:00,73.6,65.6,29.80,ESE,118,4.0,7.0,76,0.00,,,0.00,VWS V14.01,2013-05-30 10:39:00,
2013-05-30 05:44:00,73.6,65.6,29.80,ESE,122,0.0,7.0,76,0.00,,,0.00,VWS V14.01,2013-05-30 10:44:00,
2013-05-30 05:49:00,73.5,65.5,29.80,ESE,120,0.0,11.0,76,0.00,,,0.00,VWS V14.01,2013-05-30 10:49:00,
2013-05-30 05:54:00,73.6,65.6,29.80,SE,145,0.0,11.0,76,0.00,,,0.00,VWS V14.01,2013-05-30 10:54:00,
2013-05-30 05:59:00,73.5,65.9,29.80,East,101,2.0,11.0,77,0.00,,,0.00,VWS V14.01,2013-05-30 10:59:00,
2013-05-30 06:00:00,73.3,64.9,29.80,ESE,119,0.0,8.0,75,0.00,,,0.00,VWS V14.01,2013-05-30 11:00:00,
2013-05-30 06:04:00,73.5,65.9,29.80,ESE,104,2.0,6.0,77,0.00,,,0.00,VWS V14.01,2013-05-30 11:04:00,
2013-05-30 06:09:00,73.5,65.9,29.81,SE,143,0.0,8.0,77,0.00,,,0.00,VWS V14.01,2013-05-30 11:09:00,
2013-05-30 06:14:00,73.4,65.8,29.80,ESE,113,4.0,8.0,77,0.00,,,0.00,VWS V14.01,2013-05-30 11:14:00,
2013-05-30 06:19:00,73.4,66.1,29.80,ESE,117,4.0,8.0,78,0.00,,,0.00,VWS V14.01,2013-05-30 11:19:00,
2013-05-30 06:24:00,73.4,66.1,29.80,ESE,113,4.0,8.0,78,0.00,,,0.00,VWS V14.01,2013-05-30 11:24:00,
2013-05-30 06:29:00,73.4,66.1,29.80,ESE,107,1.0,8.0,78,0.00,,,0.00,VWS V14.01,2013-05-30 11:29:00,
2013-05-30 06:30:00,73.7,65.7,29.80,ESE,108,2.0,9.0,76,0.00,,,0.00,VWS V14.01,2013-05-30 11:30:00,
2013-05-30 06:34:00,73.4,66.1,29.80,SE,126,0.0,4.0,78,0.00,,,0.00,VWS V14.01,2013-05-30 11:34:00,
2013-05-30 06:39:00,73.4,66.5,29.80,ESE,120,0.0,5.0,79,0.00,,,0.00,VWS V14.01,2013-05-30 11:39:00,
2013-05-30 06:44:00,73.4,66.5,29.80,SE,131,4.0,8.0,79,0.00,,,0.00,VWS V14.01,2013-05-30 11:44:00,
2013-05-30 06:49:00,73.5,66.6,29.80,SE,129,0.0,8.0,79,0.00,,,0.00,VWS V14.01,2013-05-30 11:49:00,
2013-05-30 06:54:00,73.6,66.7,29.79,SE,139,0.0,8.0,79,0.00,,,0.00,VWS V14.01,2013-05-30 11:54:00,
2013-05-30 06:59:00,73.7,66.8,29.79,SE,135,2.0,8.0,79,0.00,,,0.00,VWS V14.01,2013-05-30 11:59:00,
2013-05-30 07:00:00,73.5,65.9,29.80,East,101,0.0,11.0,77,0.00,,,0.00,VWS V14.01,2013-05-30 12:00:00,
2013-05-30 07:04:00,73.8,66.9,29.79,ESE,109,0.0,5.0,79,0.00,,,0.00,VWS V14.01,2013-05-30 12:04:00,
2013-05-30 07:09:00,73.8,66.9,29.80,WSW,254,0.0,8.0,79,0.00,,,0.00,VWS V14.01,2013-05-30 12:09:00,
2013-05-30 07:14:00,74.0,67.1,29.80,ESE,115,0.0,8.0,79,0.00,,,0.00,VWS V14.01,2013-05-30 12:14:00,
2013-05-30 07:19:00,74.4,67.5,29.80,ESE,102,0.0,8.0,79,0.00,,,0.00,VWS V14.01,2013-05-30 12:19:00,
2013-05-30 07:24:00,74.6,67.3,29.80,SE,140,4.0,8.0,78,0.00,,,0.00,VWS V14.01,2013-05-30 12:24:00,
2013-05-30 07:29:00,74.9,67.6,29.79,ESE,103,13.0,13.0,78,0.00,,,0.00,VWS V14.01,2013-05-30 12:29:00,
2013-05-30 07:30:00,73.4,66.1,29.80,ESE,111,2.0,8.0,78,0.00,,,0.00,VWS V14.01,2013-05-30 12:30:00,
2013-05-30 07:34:00,75.3,67.6,29.80,ESE,108,0.0,8.0,77,0.00,,,0.00,VWS V14.01,2013-05-30 12:34:00,
2013-05-30 07:39:00,75.5,67.8,29.81,WNW,289,0.0,8.0,77,0.00,,,0.00,VWS V14.01,2013-05-30 12:39:00,
2013-05-30 07:44:00,75.7,67.6,29.81,South,173,6.0,10.0,76,0.00,,,0.00,VWS V14.01,2013-05-30 12:44:00,
2013-05-30 07:49:00,75.8,67.7,29.81,ESE,111,4.0,10.0,76,0.00,,,0.00,VWS V14.01,2013-05-30 12:49:00,
2013-05-30 07:54:00,75.9,67.8,29.81,SE,145,1.0,10.0,76,0.00,,,0.00,VWS V14.01,2013-05-30 12:54:00,
2013-05-30 07:59:00,76.0,67.9,29.81,ESE,110,0.0,10.0,76,0.00,,,0.00,VWS V14.01,2013-05-30 12:59:00,
2013-05-30 08:00:00,73.7,66.8,29.79,SE,135,0.0,8.0,79,0.00,,,0.00,VWS V14.01,2013-05-30 13:00:00,
2013-05-30 08:04:00,76.0,67.9,29.81,South,175,4.0,6.0,76,0.00,,,0.00,VWS V14.01,2013-05-30 13:04:00,
2013-05-30 08:09:00,76.1,68.0,29.81,East,101,0.0,9.0,76,0.00,,,0.00,VWS V14.01,2013-05-30 13:09:00,
2013-05-30 08:14:00,76.2,68.1,29.81,East,93,0.0,9.0,76,0.00,,,0.00,VWS V14.01,2013-05-30 13:14:00,
2013-05-30 08:19:00,76.5,68.0,29.80,NE,55,1.0,9.0,75,0.00,,,0.00,VWS V14.01,2013-05-30 13:19:00,
2013-05-30 08:24:00,76.8,68.3,29.81,SE,140,1.0,9.0,75,0.00,,,0.00,VWS V14.01,2013-05-30 13:24:00,
2013-05-30 08:29:00,77.1,68.2,29.81,ESE,112,8.0,13.0,74,0.00,,,0.00,VWS V14.01,2013-05-30 13:29:00,
2013-05-30 08:30:00,74.9,67.6,29.79,SE,136,8.0,13.0,78,0.00,,,0.00,VWS V14.01,2013-05-30 13:30:00,
2013-05-30 08:34:00,77.4,68.5,29.81,SSE,160,0.0,8.0,74,0.00,,,0.00,VWS V14.01,2013-05-30 13:34:00,
2013-05-30 08:39:00,77.5,68.2,29.81,NE,38,4.0,8.0,73,0.00,,,0.00,VWS V14.01,2013-05-30 13:39:00,
2013-05-30 08:44:00,77.7,68.4,29.81,SSE,159,0.0,8.0,73,0.00,,,0.00,VWS V14.01,2013-05-30 13:44:00,
2013-05-30 08:49:00,77.8,68.1,29.81,South,184,0.0,8.0,72,0.00,,,0.00,VWS V14.01,2013-05-30 13:49:00,
2013-05-30 08:54:00,78.0,68.2,29.81,West,269,2.0,8.0,72,0.00,,,0.00,VWS V14.01,2013-05-30 13:54:00,
2013-05-30 08:59:00,78.1,67.9,29.82,SE,143,2.0,8.0,71,0.00,,,0.00,VWS V14.01,2013-05-30 13:59:00,
2013-05-30 09:00:00,76.0,67.9,29.81,East,101,4.0,10.0,76,0.00,,,0.00,VWS V14.01,2013-05-30 14:00:00,
2013-05-30 09:05:00,78.4,68.2,29.81,SSE,150,1.0,8.0,71,0.00,,,0.00,VWS V14.01,2013-05-30 14:05:00,
2013-05-30 09:10:00,78.5,68.3,29.81,ESE,113,0.0,8.0,71,0.00,,,0.00,VWS V14.01,2013-05-30 14:10:00,
2013-05-30 09:15:00,78.7,68.1,29.81,NNE,29,7.0,11.0,70,0.00,,,0.00,VWS V14.01,2013-05-30 14:15:00,
2013-05-30 09:20:00,78.9,68.3,29.81,SE,139,2.0,11.0,70,0.00,,,0.00,VWS V14.01,2013-05-30 14:20:00,
2013-05-30 09:25:00,79.0,68.4,29.81,SSE,149,0.0,11.0,70,0.00,,,0.00,VWS V14.01,2013-05-30 14:25:00,
2013-05-30 09:30:00,79.3,68.7,29.81,SE,130,1.0,11.0,70,0.00,,,0.00,VWS V14.01,2013-05-30 14:30:00,
2013-05-30 09:35:00,79.6,68.5,29.81,SSE,163,0.0,5.0,69,0.00,,,0.00,VWS V14.01,2013-05-30 14:35:00,
2013-05-30 09:40:00,80.0,69.3,29.81,ENE,71,5.0,9.0,70,0.00,,,0.00,VWS V14.01,2013-05-30 14:40:00,
2013-05-30 09:45:00,80.4,68.4,29.81,SSE,163,2.0,9.0,67,0.00,,,0.00,VWS V14.01,2013-05-30 14:45:00,
2013-05-30 09:50:00,80.7,68.3,29.81,East,91,4.0,9.0,66,0.00,,,0.00,VWS V14.01,2013-05-30 14:50:00,
2013-05-30 09:55:00,81.0,68.6,29.80,ESE,113,4.0,11.0,66,0.00,,,0.00,VWS V14.01,2013-05-30 14:55:00,
2013-05-30 10:00:00,81.5,69.1,29.80,WSW,240,6.0,11.0,66,0.00,,,0.00,VWS V14.01,2013-05-30 15:00:00,
2013-05-30 10:05:00,81.9,69.0,29.80,WSW,242,0.0,6.0,65,0.00,,,0.00,VWS V14.01,2013-05-30 15:05:00,
2013-05-30 10:10:00,82.0,68.2,29.81,South,185,0.0,11.0,63,0.00,,,0.00,VWS V14.01,2013-05-30 15:10:00,
2013-05-30 10:15:00,81.9,68.5,29.80,ESE,106,4.0,11.0,64,0.00,,,0.00,VWS V14.01,2013-05-30 15:15:00,
2013-05-30 10:20:00,81.6,67.8,29.80,South,176,0.0,12.0,63,0.00,,,0.00,VWS V14.01,2013-05-30 15:20:00,
2013-05-30 10:25:00,81.6,69.2,29.80,South,179,0.0,12.0,66,0.00,,,0.00,VWS V14.01,2013-05-30 15:25:00,
2013-05-30 10:30:00,81.7,68.3,29.80,SSE,148,1.0,12.0,64,0.00,,,0.00,VWS V14.01,2013-05-30 15:30:00,
2013-05-30 10:35:00,81.7,67.9,29.80,ESE,122,4.0,9.0,63,0.00,,,0.00,VWS V14.01,2013-05-30 15:35:00,
2013-05-30 10:40:00,82.0,68.2,29.80,WNW,300,0.0,11.0,63,0.00,,,0.00,VWS V14.01,2013-05-30 15:40:00,
2013-05-30 10:45:00,82.0,68.6,29.80,ESE,107,0.0,11.0,64,0.00,,,0.00,VWS V14.01,2013-05-30 15:45:00,
2013-05-30 10:50:00,82.1,67.3,29.80,SSE,154,0.0,11.0,61,0.00,,,0.00,VWS V14.01,2013-05-30 15:50:00,
2013-05-30 10:55:00,82.3,68.0,29.80,SSE,156,0.0,11.0,62,0.00,,,0.00,VWS V14.01,2013-05-30 15:55:00,
2013-05-30 11:00:00,82.6,67.8,29.80,WNW,292,1.0,11.0,61,0.00,,,0.00,VWS V14.01,2013-05-30 16:00:00,
2013-05-30 11:05:00,83.0,68.2,29.79,East,90,0.0,7.0,61,0.00,,,0.00,VWS V14.01,2013-05-30 16:05:00,
2013-05-30 11:10:00,83.5,67.7,29.79,SSE,161,2.0,11.0,59,0.00,,,0.00,VWS V14.01,2013-05-30 16:10:00,
2013-05-30 11:15:00,83.7,68.8,29.79,SSW,193,0.0,11.0,61,0.00,,,0.00,VWS V14.01,2013-05-30 16:15:00,
2013-05-30 11:20:00,84.0,68.6,29.79,NNW,344,0.0,11.0,60,0.00,,,0.00,VWS V14.01,2013-05-30 16:20:00,
2013-05-30 11:25:00,84.1,68.7,29.80,SSW,196,1.0,13.0,60,0.00,,,0.00,VWS V14.01,2013-05-30 16:25:00,
2013-05-30 11:30:00,84.3,67.9,29.80,WNW,286,5.0,13.0,58,0.00,,,0.00,VWS V14.01,2013-05-30 16:30:00,
2013-05-30 11:35:00,84.2,67.3,29.81,West,268,2.0,11.0,57,0.00,,,0.00,VWS V14.01,2013-05-30 16:35:00,
2013-05-30 11:40:00,83.8,67.5,29.81,SW,215,2.0,11.0,58,0.00,,,0.00,VWS V14.01,2013-05-30 16:40:00,
2013-05-30 11:45:00,83.6,67.8,29.81,SW,222,3.0,17.0,59,0.00,,,0.00,VWS V14.01,2013-05-30 16:45:00,
2013-05-30 11:50:00,83.4,67.6,29.80,ENE,73,1.0,17.0,59,0.00,,,0.00,VWS V14.01,2013-05-30 16:50:00,
2013-05-30 11:55:00,83.0,68.2,29.81,South,178,0.0,17.0,61,0.00,,,0.00,VWS V14.01,2013-05-30 16:55:00,
2013-05-30 12:00:00,82.7,67.9,29.80,ESE,111,0.0,0.0,61,0.00,,,0.00,VWS V14.01,2013-05-30 17:00:00,
2013-05-30 12:05:00,82.4,68.6,29.80,ESE,115,1.0,5.0,63,0.00,,,0.00,VWS V14.01,2013-05-30 17:05:00,
2013-05-30 12:10:00,82.1,68.7,29.80,SSW,201,0.0,5.0,64,0.00,,,0.00,VWS V14.01,2013-05-30 17:10:00,
2013-05-30 12:15:00,81.8,68.4,29.80,SSE,154,0.0,5.0,64,0.00,,,0.00,VWS V14.01,2013-05-30 17:15:00,
2013-05-30 12:20:00,81.9,69.0,29.80,NW,312,7.0,12.0,65,0.00,,,0.00,VWS V14.01,2013-05-30 17:20:00,
2013-05-30 12:25:00,82.3,68.5,29.80,SW,226,1.0,12.0,63,0.00,,,0.00,VWS V14.01,2013-05-30 17:25:00,
2013-05-30 12:30:00,82.4,68.1,29.80,SSE,152,0.0,0.0,62,0.00,,,0.00,VWS V14.01,2013-05-30 17:30:00,
2013-05-30 12:35:00,82.7,68.8,29.79,ESE,107,4.0,7.0,63,0.00,,,0.00,VWS V14.01,2013-05-30 17:35:00,
2013-05-30 12:40:00,83.4,69.5,29.78,ESE,103,6.0,7.0,63,0.00,,,0.00,VWS V14.01,2013-05-30 17:40:00,
2013-05-30 12:45:00,84.1,69.2,29.78,South,183,3.0,9.0,61,0.00,,,0.00,VWS V14.01,2013-05-30 17:45:00,
2013-05-30 12:50:00,83.9,68.1,29.78,ESE,106,0.0,9.0,59,0.00,,,0.00,VWS V14.01,2013-05-30 17:50:00,
2013-05-30 12:55:00,83.2,67.4,29.78,ESE,117,0.0,9.0,59,0.00,,,0.00,VWS V14.01,2013-05-30 17:55:00,
2013-05-30 13:00:00,82.7,67.4,29.77,South,184,2.0,2.0,60,0.00,,,0.00,VWS V14.01,2013-05-30 18:00:00,
2013-05-30 13:05:00,82.1,67.8,29.77,South,179,4.0,7.0,62,0.00,,,0.00,VWS V14.01,2013-05-30 18:05:00,
2013-05-30 13:10:00,81.6,67.8,29.77,SSE,147,9.0,11.0,63,0.00,,,0.00,VWS V14.01,2013-05-30 18:10:00,
2013-05-30 13:15:00,81.1,67.3,29.77,ESE,104,2.0,11.0,63,0.00,,,0.00,VWS V14.01,2013-05-30 18:15:00,
2013-05-30 13:20:00,80.7,66.9,29.76,SE,135,2.0,11.0,63,0.00,,,0.00,VWS V14.01,2013-05-30 18:20:00,
2013-05-30 13:25:00,80.9,68.5,29.76,ESE,105,0.0,11.0,66,0.00,,,0.00,VWS V14.01,2013-05-30 18:25:00,
2013-05-30 13:30:00,81.2,68.8,29.75,East,96,1.0,2.0,66,0.00,,,0.00,VWS V14.01,2013-05-30 18:30:00,
2013-05-30 13:35:00,81.4,68.5,29.76,SE,129,0.0,8.0,65,0.00,,,0.00,VWS V14.01,2013-05-30 18:35:00,
2013-05-30 13:40:00,81.4,68.5,29.76,SE,146,2.0,8.0,65,0.00,,,0.00,VWS V14.01,2013-05-30 18:40:00,
2013-05-30 13:45:00,81.5,68.6,29.76,SSE,155,1.0,8.0,65,0.00,,,0.00,VWS V14.01,2013-05-30 18:45:00,
2013-05-30 13:50:00,81.6,69.2,29.76,NE,47,1.0,9.0,66,0.00,,,0.00,VWS V14.01,2013-05-30 18:50:00,
2013-05-30 13:55:00,81.7,69.7,29.75,SSE,153,4.0,9.0,67,0.00,,,0.00,VWS V14.01,2013-05-30 18:55:00,
2013-05-30 14:00:00,82.1,68.7,29.75,SE,142,4.0,4.0,64,0.00,,,0.00,VWS V14.01,2013-05-30 19:00:00,
2013-05-30 14:05:00,82.7,70.2,29.75,East,83,7.0,7.0,66,0.00,,,0.00,VWS V14.01,2013-05-30 19:05:00,
2013-05-30 14:10:00,83.3,68.9,29.75,SSE,155,8.0,12.0,62,0.00,,,0.00,VWS V14.01,2013-05-30 19:10:00,
2013-05-30 14:15:00,83.7,69.8,29.75,East,84,4.0,12.0,63,0.00,,,0.00,VWS V14.01,2013-05-30 19:15:00,
2013-05-30 14:20:00,83.5,70.1,29.75,SSE,149,0.0,12.0,64,0.00,,,0.00,VWS V14.01,2013-05-30 19:20:00,
2013-05-30 14:25:00,83.1,69.7,29.75,SE,135,0.0,12.0,64,0.00,,,0.00,VWS V14.01,2013-05-30 19:25:00,
2013-05-30 14:30:00,82.9,69.5,29.74,SSE,155,0.0,4.0,64,0.00,,,0.00,VWS V14.01,2013-05-30 19:30:00,
2013-05-30 14:35:00,82.9,69.9,29.74,East,81,3.0,7.0,65,0.00,,,0.00,VWS V14.01,2013-05-30 19:35:00,
2013-05-30 14:40:00,83.1,69.7,29.74,SSW,208,0.0,9.0,64,0.00,,,0.00,VWS V14.01,2013-05-30 19:40:00,
2013-05-30 14:46:00,83.4,69.5,29.74,SSE,150,0.0,9.0,63,0.00,,,0.00,VWS V14.01,2013-05-30 19:46:00,
2013-05-30 14:51:00,83.4,69.5,29.75,ESE,115,1.0,14.0,63,0.00,,,0.00,VWS V14.01,2013-05-30 19:51:00,
2013-05-30 14:56:00,83.2,69.8,29.75,ENE,69,4.0,15.0,64,0.00,,,0.00,VWS V14.01,2013-05-30 19:56:00,
2013-05-30 15:00:00,82.1,68.7,29.75,SE,134,0.0,11.0,64,0.00,,,0.00,VWS V14.01,2013-05-30 20:00:00,
2013-05-30 15:01:00,82.9,69.9,29.75,ESE,114,1.0,5.0,65,0.00,,,0.00,VWS V14.01,2013-05-30 20:01:00,
2013-05-30 15:06:00,82.6,69.7,29.75,SSE,150,0.0,7.0,65,0.00,,,0.00,VWS V14.01,2013-05-30 20:06:00,
2013-05-30 15:11:00,82.4,68.6,29.75,SSE,148,2.0,7.0,63,0.00,,,0.00,VWS V14.01,2013-05-30 20:11:00,
2013-05-30 15:16:00,82.2,68.4,29.75,SSE,163,0.0,7.0,63,0.00,,,0.00,VWS V14.01,2013-05-30 20:16:00,
2013-05-30 15:21:00,81.8,68.0,29.75,SE,144,8.0,18.0,63,0.00,,,0.00,VWS V14.01,2013-05-30 20:21:00,
2013-05-30 15:26:00,81.6,68.7,29.75,East,98,4.0,18.0,65,0.00,,,0.00,VWS V14.01,2013-05-30 20:26:00,
2013-05-30 15:30:00,82.9,69.5,29.74,ESE,118,4.0,14.0,64,0.00,,,0.00,VWS V14.01,2013-05-30 20:30:00,
2013-05-30 15:31:00,81.4,68.5,29.74,ESE,120,0.0,6.0,65,0.00,,,0.00,VWS V14.01,2013-05-30 20:31:00,
2013-05-30 15:36:00,81.4,69.0,29.74,SE,136,2.0,11.0,66,0.00,,,0.00,VWS V14.01,2013-05-30 20:36:00,
2013-05-30 15:41:00,81.3,68.9,29.74,ENE,69,5.0,13.0,66,0.00,,,0.00,VWS V14.01,2013-05-30 20:41:00,
2013-05-30 15:46:00,81.1,69.1,29.74,SE,133,0.0,13.0,67,0.00,,,0.00,VWS V14.01,2013-05-30 20:46:00,
2013-05-30 15:51:00,81.0,69.0,29.74,ESE,112,1.0,13.0,67,0.00,,,0.00,VWS V14.01,2013-05-30 20:51:00,
2013-05-30 15:56:00,80.9,68.5,29.74,South,189,0.0,13.0,66,0.00,,,0.00,VWS V14.01,2013-05-30 20:56:00,
2013-05-30 16:00:00,82.9,69.9,29.75,East,90,2.0,15.0,65,0.00,,,0.00,VWS V14.01,2013-05-30 21:00:00,
2013-05-30 16:01:00,80.8,68.8,29.73,SSE,168,4.0,11.0,67,0.00,,,0.00,VWS V14.01,2013-05-30 21:01:00,
2013-05-30 16:06:00,80.6,69.1,29.73,ESE,116,1.0,11.0,68,0.00,,,0.00,VWS V14.01,2013-05-30 21:06:00,
2013-05-30 16:11:00,80.6,69.5,29.73,SE,132,0.0,11.0,69,0.00,,,0.00,VWS V14.01,2013-05-30 21:11:00,
2013-05-30 16:16:00,80.6,69.5,29.74,WNW,296,0.0,11.0,69,0.00,,,0.00,VWS V14.01,2013-05-30 21:16:00,
2013-05-30 16:21:00,80.6,69.5,29.74,ESE,114,2.0,11.0,69,0.00,,,0.00,VWS V14.01,2013-05-30 21:21:00,
2013-05-30 16:26:00,80.5,70.2,29.73,East,98,0.0,11.0,71,0.00,,,0.00,VWS V14.01,2013-05-30 21:26:00,
2013-05-30 16:30:00,81.4,68.5,29.74,ESE,103,2.0,18.0,65,0.00,,,0.00,VWS V14.01,2013-05-30 21:30:00,
2013-05-30 16:31:00,80.1,70.3,29.73,East,83,0.0,0.0,72,0.00,,,0.00,VWS V14.01,2013-05-30 21:31:00,
2013-05-30 16:36:00,79.9,70.1,29.73,WNW,286,0.0,6.0,72,0.00,,,0.00,VWS V14.01,2013-05-30 21:36:00,
2013-05-30 16:41:00,79.8,70.0,29.73,WNW,286,0.0,6.0,72,0.00,,,0.00,VWS V14.01,2013-05-30 21:41:00,
2013-05-30 16:46:00,79.8,70.4,29.74,WNW,286,0.0,6.0,73,0.00,,,0.00,VWS V14.01,2013-05-30 21:46:00,
2013-05-30 16:51:00,79.7,69.1,29.74,SSE,160,0.0,6.0,70,0.00,,,0.00,VWS V14.01,2013-05-30 21:51:00,
2013-05-30 16:56:00,79.7,69.1,29.75,WNW,297,7.0,8.0,70,0.00,,,0.00,VWS V14.01,2013-05-30 21:56:00,
2013-05-30 17:00:00,80.8,68.8,29.73,ESE,107,1.0,13.0,67,0.00,,,0.00,VWS V14.01,2013-05-30 22:00:00,
2013-05-30 17:01:00,76.6,64.0,29.75,WNW,289,18.0,18.0,65,0.00,,,0.00,VWS V14.01,2013-05-30 22:01:00,
2013-05-30 17:06:00,72.4,62.9,29.75,West,262,6.0,18.0,72,0.00,,,0.00,VWS V14.01,2013-05-30 22:06:00,
2013-05-30 17:11:00,70.5,61.8,29.76,NE,34,0.0,18.0,74,0.00,,,0.00,VWS V14.01,2013-05-30 22:11:00,
2013-05-30 17:16:00,69.3,61.4,29.75,WNW,300,0.0,18.0,76,0.00,,,0.00,VWS V14.01,2013-05-30 22:16:00,
2013-05-30 17:21:00,68.4,61.3,29.77,NW,311,6.0,18.0,78,0.00,,,0.00,VWS V14.01,2013-05-30 22:21:00,
2013-05-30 17:26:00,68.0,61.2,29.77,West,273,2.0,18.0,79,0.00,,,0.00,VWS V14.01,2013-05-30 22:26:00,
2013-05-30 17:30:00,80.2,69.9,29.73,East,83,0.0,11.0,71,0.00,,,0.00,VWS V14.01,2013-05-30 22:30:00,
2013-05-30 17:31:00,67.8,61.8,29.78,SW,236,3.0,3.0,81,0.00,,,0.00,VWS V14.01,2013-05-30 22:31:00,
2013-05-30 17:36:00,67.3,61.3,29.78,WNW,290,11.0,15.0,81,0.01,,,0.01,VWS V14.01,2013-05-30 22:36:00,
2013-05-30 17:41:00,66.8,61.5,29.78,WNW,295,5.0,15.0,83,0.01,,,0.01,VWS V14.01,2013-05-30 22:41:00,
2013-05-30 17:46:00,66.3,61.3,29.78,NW,308,0.0,15.0,84,0.01,,,0.01,VWS V14.01,2013-05-30 22:46:00,
2013-05-30 17:51:00,66.1,61.5,29.76,WNW,282,1.0,15.0,85,0.01,,,0.01,VWS V14.01,2013-05-30 22:51:00,
2013-05-30 17:56:00,65.9,61.3,29.77,NW,321,6.0,15.0,85,0.02,,,0.02,VWS V14.01,2013-05-30 22:56:00,
2013-05-30 18:00:00,77.5,64.8,29.76,WNW,289,14.0,22.0,65,0.00,,,0.00,VWS V14.01,2013-05-30 23:00:00,
2013-05-30 18:01:00,65.8,61.5,29.76,NW,317,9.0,11.0,86,0.04,,,0.04,VWS V14.01,2013-05-30 23:01:00,
2013-05-30 18:06:00,65.7,61.4,29.77,West,272,0.0,12.0,86,0.07,,,0.07,VWS V14.01,2013-05-30 23:06:00,
2013-05-30 18:11:00,65.5,61.2,29.77,WNW,294,2.0,12.0,86,0.10,,,0.10,VWS V14.01,2013-05-30 23:11:00,
2013-05-30 18:16:00,65.5,61.9,29.78,East,80,0.0,12.0,88,0.12,,,0.12,VWS V14.01,2013-05-30 23:16:00,
2013-05-30 18:21:00,65.6,62.0,29.79,East,81,0.0,12.0,88,0.16,,,0.16,VWS V14.01,2013-05-30 23:21:00,
2013-05-30 18:26:00,65.4,61.8,29.78,NW,325,0.0,12.0,88,0.28,,,0.28,VWS V14.01,2013-05-30 23:26:00,
2013-05-30 18:30:00,67.9,61.9,29.77,SE,143,0.0,18.0,81,0.00,,,0.00,VWS V14.01,2013-05-30 23:30:00,
2013-05-30 18:31:00,65.2,61.9,29.79,West,279,6.0,11.0,89,0.34,,,0.34,VWS V14.01,2013-05-30 23:31:00,
2013-05-30 18:36:00,64.9,61.3,29.79,WNW,289,4.0,17.0,88,0.43,,,0.43,VWS V14.01,2013-05-30 23:36:00,
2013-05-30 18:41:00,64.7,61.4,29.79,West,267,6.0,17.0,89,0.44,,,0.44,VWS V14.01,2013-05-30 23:41:00,
2013-05-30 18:46:00,64.6,61.3,29.79,WNW,291,0.0,17.0,89,0.44,,,0.44,VWS V14.01,2013-05-30 23:46:00,
2013-05-30 18:51:00,64.6,61.3,29.80,WNW,291,1.0,17.0,89,0.48,,,0.48,VWS V14.01,2013-05-30 23:51:00,
2013-05-30 18:56:00,64.5,61.2,29.81,WNW,291,0.0,17.0,89,0.50,,,0.50,VWS V14.01,2013-05-30 23:56:00,
2013-05-30 19:00:00,65.9,61.6,29.76,WNW,296,4.0,15.0,86,0.04,,,0.04,VWS V14.01,2013-05-31 00:00:00,
2013-05-30 19:01:00,64.4,61.1,29.81,WNW,291,0.0,0.0,89,0.47,,,0.51,VWS V14.01,2013-05-31 00:01:00,
2013-05-30 19:06:00,64.4,61.1,29.82,WNW,300,0.0,9.0,89,0.50,,,0.54,VWS V14.01,2013-05-31 00:06:00,
2013-05-30 19:11:00,64.3,61.3,29.81,WNW,297,2.0,9.0,90,0.52,,,0.56,VWS V14.01,2013-05-31 00:11:00,
2013-05-30 19:16:00,64.2,61.2,29.81,WNW,297,0.0,9.0,90,0.52,,,0.56,VWS V14.01,2013-05-31 00:16:00,
2013-05-30 19:21:00,64.1,61.1,29.81,WNW,297,0.0,9.0,90,0.52,,,0.56,VWS V14.01,2013-05-31 00:21:00,
2013-05-30 19:26:00,64.1,61.1,29.80,WNW,297,0.0,9.0,90,0.52,,,0.56,VWS V14.01,2013-05-31 00:26:00,
2013-05-30 19:30:00,65.3,62.0,29.80,SW,219,3.0,12.0,89,0.31,,,0.31,VWS V14.01,2013-05-31 00:30:00,
2013-05-30 19:31:00,64.1,61.1,29.80,WNW,297,0.0,1.0,90,0.25,,,0.56,VWS V14.01,2013-05-31 00:31:00,
2013-05-30 19:36:00,64.1,61.1,29.80,WNW,297,0.0,2.0,90,0.25,,,0.56,VWS V14.01,2013-05-31 00:36:00,
2013-05-30 19:41:00,64.1,61.1,29.80,WNW,297,0.0,2.0,90,0.25,,,0.56,VWS V14.01,2013-05-31 00:41:00,
2013-05-30 19:46:00,64.1,61.1,29.80,WNW,297,0.0,2.0,90,0.25,,,0.56,VWS V14.01,2013-05-31 00:46:00,
2013-05-30 19:51:00,64.1,61.1,29.79,WNW,297,2.0,2.0,90,0.25,,,0.56,VWS V14.01,2013-05-31 00:51:00,
2013-05-30 19:56:00,64.2,61.2,29.79,WNW,297,0.0,2.0,90,0.25,,,0.56,VWS V14.01,2013-05-31 00:56:00,
2013-05-30 20:00:00,64.5,61.2,29.81,WNW,291,0.0,17.0,89,0.51,,,0.51,VWS V14.01,2013-05-31 01:00:00,
2013-05-30 20:01:00,64.2,61.5,29.79,WNW,297,0.0,0.0,91,0.05,,,0.56,VWS V14.01,2013-05-31 01:01:00,
2013-05-30 20:06:00,64.2,61.5,29.80,WNW,297,0.0,0.0,91,0.05,,,0.56,VWS V14.01,2013-05-31 01:06:00,
2013-05-30 20:11:00,64.2,61.5,29.80,WNW,297,0.0,1.0,91,0.05,,,0.56,VWS V14.01,2013-05-31 01:11:00,
2013-05-30 20:16:00,64.3,61.6,29.80,WNW,297,0.0,1.0,91,0.05,,,0.56,VWS V14.01,2013-05-31 01:16:00,
2013-05-30 20:21:00,64.3,61.6,29.80,WNW,297,0.0,1.0,91,0.05,,,0.56,VWS V14.01,2013-05-31 01:21:00,
2013-05-30 20:26:00,64.3,61.6,29.80,WNW,297,1.0,1.0,91,0.05,,,0.56,VWS V14.01,2013-05-31 01:26:00,
2013-05-30 20:30:00,64.1,61.1,29.80,WNW,297,0.0,9.0,90,0.52,,,0.56,VWS V14.01,2013-05-31 01:30:00,
2013-05-30 20:31:00,64.3,61.6,29.80,WNW,297,0.0,0.0,91,0.00,,,0.56,VWS V14.01,2013-05-31 01:31:00,
2013-05-30 20:36:00,64.2,61.5,29.80,WNW,297,0.0,0.0,91,0.00,,,0.56,VWS V14.01,2013-05-31 01:36:00,
2013-05-30 20:41:00,64.2,61.5,29.81,WNW,297,2.0,2.0,91,0.00,,,0.56,VWS V14.01,2013-05-31 01:41:00,
2013-05-30 20:46:00,64.3,61.6,29.81,WNW,297,0.0,4.0,91,0.00,,,0.56,VWS V14.01,2013-05-31 01:46:00,
2013-05-30 20:51:00,64.3,61.6,29.82,WNW,297,0.0,4.0,91,0.00,,,0.56,VWS V14.01,2013-05-31 01:51:00,
2013-05-30 20:56:00,64.4,61.7,29.84,ESE,117,0.0,6.0,91,0.02,,,0.58,VWS V14.01,2013-05-31 01:56:00,
2013-05-30 21:00:00,64.2,61.5,29.80,WNW,297,0.0,2.0,91,0.25,,,0.56,VWS V14.01,2013-05-31 02:00:00,
2013-05-30 21:01:00,64.5,61.8,29.84,North,11,1.0,1.0,91,0.04,,,0.60,VWS V14.01,2013-05-31 02:01:00,
2013-05-30 21:06:00,64.5,61.8,29.84,North,355,1.0,2.0,91,0.07,,,0.63,VWS V14.01,2013-05-31 02:06:00,
2013-05-30 21:11:00,64.4,61.7,29.83,WNW,289,0.0,7.0,91,0.08,,,0.64,VWS V14.01,2013-05-31 02:11:00,
2013-05-30 21:16:00,64.4,61.7,29.82,WNW,289,0.0,7.0,91,0.08,,,0.64,VWS V14.01,2013-05-31 02:16:00,
2013-05-30 21:21:00,64.4,61.7,29.82,WNW,289,0.0,7.0,91,0.08,,,0.64,VWS V14.01,2013-05-31 02:21:00,
2013-05-30 21:26:00,64.4,61.7,29.83,WNW,289,2.0,7.0,91,0.09,,,0.65,VWS V14.01,2013-05-31 02:26:00,
2013-05-30 21:30:00,64.3,61.6,29.80,WNW,297,0.0,1.0,91,0.05,,,0.56,VWS V14.01,2013-05-31 02:30:00,
2013-05-30 21:31:00,64.4,61.7,29.83,WNW,289,0.0,1.0,91,0.10,,,0.66,VWS V14.01,2013-05-31 02:31:00,
2013-05-30 21:36:00,64.4,61.7,29.84,WNW,289,0.0,2.0,91,0.12,,,0.68,VWS V14.01,2013-05-31 02:36:00,
2013-05-30 21:42:00,64.5,61.8,29.83,WNW,289,0.0,2.0,91,0.14,,,0.70,VWS V14.01,2013-05-31 02:42:00,
2013-05-30 21:47:00,64.5,61.8,29.81,ENE,70,0.0,3.0,91,0.17,,,0.73,VWS V14.01,2013-05-31 02:47:00,
2013-05-30 21:52:00,64.5,61.8,29.80,SE,131,0.0,4.0,91,0.18,,,0.74,VWS V14.01,2013-05-31 02:52:00,
2013-05-30 21:57:00,64.5,61.8,29.80,SE,131,0.0,4.0,91,0.19,,,0.75,VWS V14.01,2013-05-31 02:57:00,
2013-05-30 22:00:00,64.5,61.8,29.84,North,11,1.0,6.0,91,0.03,,,0.59,VWS V14.01,2013-05-31 03:00:00,
2013-05-30 22:02:00,64.4,61.7,29.79,SE,131,0.0,1.0,91,0.17,,,0.76,VWS V14.01,2013-05-31 03:02:00,
2013-05-30 22:07:00,64.4,62.0,29.80,East,98,1.0,5.0,92,0.18,,,0.77,VWS V14.01,2013-05-31 03:07:00,
2013-05-30 22:12:00,64.4,62.0,29.80,ESE,123,0.0,5.0,92,0.19,,,0.78,VWS V14.01,2013-05-31 03:12:00,
2013-05-30 22:17:00,64.4,62.0,29.80,ESE,109,0.0,5.0,92,0.19,,,0.78,VWS V14.01,2013-05-31 03:17:00,
2013-05-30 22:22:00,64.4,62.0,29.80,East,100,1.0,5.0,92,0.20,,,0.79,VWS V14.01,2013-05-31 03:22:00,
2013-05-30 22:27:00,64.4,62.0,29.80,East,93,4.0,5.0,92,0.21,,,0.80,VWS V14.01,2013-05-31 03:27:00,
2013-05-30 22:30:00,64.4,61.7,29.83,WNW,289,0.0,7.0,91,0.10,,,0.66,VWS V14.01,2013-05-31 03:30:00,
2013-05-30 22:32:00,64.4,62.0,29.78,ESE,110,0.0,0.0,92,0.15,,,0.81,VWS V14.01,2013-05-31 03:32:00,
2013-05-30 22:37:00,64.5,62.1,29.76,East,93,4.0,4.0,92,0.16,,,0.82,VWS V14.01,2013-05-31 03:37:00,
2013-05-30 22:42:00,64.4,62.0,29.75,East,87,0.0,5.0,92,0.16,,,0.82,VWS V14.01,2013-05-31 03:42:00,
2013-05-30 22:47:00,64.5,62.1,29.78,West,265,0.0,6.0,92,0.16,,,0.82,VWS V14.01,2013-05-31 03:47:00,
2013-05-30 22:52:00,64.5,62.1,29.77,East,88,2.0,6.0,92,0.16,,,0.82,VWS V14.01,2013-05-31 03:52:00,
2013-05-30 22:57:00,64.6,62.2,29.79,SW,228,0.0,6.0,92,0.16,,,0.82,VWS V14.01,2013-05-31 03:57:00,
2013-05-30 23:00:00,64.5,61.8,29.79,SE,131,0.0,4.0,91,0.19,,,0.75,VWS V14.01,2013-05-31 04:00:00,
2013-05-30 23:02:00,64.7,62.3,29.79,SW,228,0.0,0.0,92,0.07,,,0.82,VWS V14.01,2013-05-31 04:02:00,
2013-05-30 23:07:00,64.8,62.4,29.80,SE,126,0.0,5.0,92,0.07,,,0.82,VWS V14.01,2013-05-31 04:07:00,
2013-05-30 23:12:00,64.8,62.4,29.78,ESE,123,1.0,5.0,92,0.07,,,0.82,VWS V14.01,2013-05-31 04:12:00,
2013-05-30 23:17:00,64.8,62.4,29.78,SE,131,0.0,5.0,92,0.07,,,0.82,VWS V14.01,2013-05-31 04:17:00,
2013-05-30 23:22:00,64.8,62.4,29.78,East,96,0.0,5.0,92,0.07,,,0.82,VWS V14.01,2013-05-31 04:22:00,
2013-05-30 23:27:00,64.8,62.4,29.78,East,96,0.0,5.0,92,0.07,,,0.82,VWS V14.01,2013-05-31 04:27:00,
2013-05-30 23:30:00,64.8,62.4,29.78,East,96,0.0,5.0,92,0.07,,,0.82,VWS V14.01,2013-05-31 04:30:00,
2013-05-30 23:37:00,64.8,62.4,29.79,East,96,0.0,0.0,92,0.01,,,0.82,VWS V14.01,2013-05-31 04:37:00,
2013-05-30 23:42:00,64.8,62.4,29.79,East,96,0.0,0.0,92,0.01,,,0.82,VWS V14.01,2013-05-31 04:42:00,
2013-05-30 23:47:00,64.7,62.3,29.80,East,96,0.0,1.0,92,0.01,,,0.82,VWS V14.01,2013-05-31 04:47:00,
2013-05-30 23:52:00,64.7,62.3,29.80,East,96,0.0,1.0,92,0.01,,,0.82,VWS V14.01,2013-05-31 04:52:00,
2013-05-30 23:57:00,64.7,62.3,29.79,East,96,0.0,2.0,92,0.01,,,0.82,VWS V14.01,2013-05-31 04:57:00,